| time (UTC) | temp F | wind direction | speed knots | gust knots | rain 1hr in | rain 24hr in | rain mn in | humidity % | barometer mb |
| 20260903221109 | 65 | 207 | 0.0 | 0.0 | 0.00 | 0.01 | 0.01 | 93 | 1018.9 |
| 20260903220128 | 65 | 171 | 0.0 | 0.0 | 0.00 | 0.01 | 0.01 | 93 | 1019.1 |
| 20260903215141 | 65 | 180 | 0.0 | 0.0 | 0.00 | 0.01 | 0.01 | 92 | 1019.1 |
| 20260903214204 | 65 | 195 | 0.0 | 0.0 | 0.00 | 0.01 | 0.01 | 92 | 1019.2 |
| 20260903212126 | 65 | 202 | 0.0 | 0.0 | 0.00 | 0.01 | 0.01 | 90 | 1019.3 |
| 20260903211109 | 66 | 202 | 0.0 | 0.0 | 0.00 | 0.00 | 0.00 | 89 | 1019.4 |
| 20260903210053 | 66 | 193 | 0.0 | 0.0 | 0.00 | 0.00 | 0.00 | 87 | 1019.5 |
| 20260903205051 | 67 | 190 | 0.0 | 0.0 | 0.00 | 0.00 | 0.00 | 85 | 1019.6 |
| 20260903204031 | 67 | 188 | 0.0 | 0.0 | 0.00 | 0.00 | 0.00 | 82 | 1019.8 |
| 20260903201855 | 68 | 131 | 0.0 | 0.0 | 0.00 | 0.00 | 0.00 | 82 | 1019.8 |
| 20260903200910 | 68 | 196 | 0.0 | 0.0 | 0.00 | 0.00 | 0.00 | 81 | 1020.0 |
| 20260903195918 | 68 | 155 | 0.0 | 0.0 | 0.00 | 0.00 | 0.00 | 80 | 1020.0 |
| 20260903194857 | 68 | 173 | 0.0 | 0.0 | 0.00 | 0.00 | 0.00 | 79 | 1020.1 |
| 20260903193850 | 68 | 224 | 0.0 | 0.0 | 0.00 | 0.00 | 0.00 | 78 | 1020.2 |
| 20260903192859 | 68 | 109 | 0.0 | 0.0 | 0.00 | 0.00 | 0.00 | 78 | 1020.3 |
| 20260903191847 | 69 | 190 | 0.0 | 0.0 | 0.00 | 0.00 | 0.00 | 79 | 1020.3 |
| 20260903190907 | 69 | 146 | 0.0 | 0.0 | 0.00 | 0.00 | 0.00 | 79 | 1020.4 |
| 20260903185911 | 69 | 172 | 0.0 | 0.0 | 0.00 | 0.00 | 0.00 | 79 | 1020.5 |
| 20260903184910 | 69 | 163 | 0.0 | 0.0 | 0.00 | 0.00 | 0.00 | 77 | 1020.6 |
| 20260903183836 | 69 | 190 | 0.0 | 0.0 | 0.00 | 0.00 | 0.00 | 76 | 1020.7 |
| 20260903182849 | 69 | 200 | 0.0 | 0.0 | 0.00 | 0.00 | 0.00 | 76 | 1021.0 |
| 20260903181859 | 69 | 200 | 0.0 | 0.0 | 0.00 | 0.00 | 0.00 | 76 | 1021.0 |